Location: Norton
(51.3000°N, 0.8167°E)
Time: 16:43:22
(UTC+00:00)

NOSS 3-3 (A) - Pass Details

Date: 03 March 2021
Orbit: 815 x 1397 km, 63.4° (Epoch: 13 April)

Event Time Altitude Azimuth Distance (km) Brightness Sun altitude
Rises 20:06:12 0° 314° (NW) 3,881 8.2 -23.2°
Reaches altitude 10° 20:08:43 10° 316° (NW) 3,002 7.4 -23.5°
Maximum altitude 20:16:01 78° 43° (NE) 1,268 4.4 -24.6°
Enters shadow 20:18:42 47° 120° (ESE) 1,651 4.7 -25.0°
